Flag for U.S.A. Weather past 2 weeks in Laredo, Texas, U.S.A.

Now
80 °F

Clear.


Feels Like: 82 °F
Forecast: 75 / 94 °F
Wind: 18 mph from Southeast

Location: Laredo International Airport

Current Time: Jul 1, 2015 at 11:10:58 PM

Latest Report: Jul 1, 2015 at 9:56 PM


Visibility: 10 mi

Pressure: 29.97 "Hg

Humidity: 58%

Dew point: 64 °F

Location of LaredoLocation

Historic Weather in Laredo — Graph

°F

Laredo temperature yesterday

Maximum temperature yesterday: 91 °F (at 12:56 PM)
Minimum temperature yesterday: 77 °F (at 5:56 AM)
Average temperature yesterday: 84 °F

Past Weeks' High & Low Weather Summary

 TemperatureHumidityPressure
High98 °F (Jun 26, 3:56 PM)100% (Jun 24, 6:56 AM)30.12 "Hg (Jun 24, 6:56 AM)
Low73 °F (Jun 21, 8:56 PM)29% (Jun 29, 5:56 PM)29.80 "Hg (Jun 17, 4:56 PM)
Average83 °F72%29.97 "Hg
* Reported Jun 16 9:56 PM — Jul 1 9:56 PM, Laredo, Weather by CustomWeather, © 2015

Note: Actual official high and low records may vary slightly from our data, if they occured in-between our weather recording intervals... More about our weather records

Advertising

Laredo weather history for previous 24 hours

 ConditionsComfort  
Time TempWeatherWind HumidityBarometerVisibility
9:56 PM
Wed, Jul 1
80 °FClear.18 mph58%29.97 "Hg10 mi
8:56 PM82 °FSunny.16 mph55%29.96 "Hg10 mi
7:56 PM85 °FSunny.20 mph43%29.95 "Hg10 mi
6:56 PM87 °FSunny.17 mph42%29.94 "Hg10 mi
5:56 PM83 °FPartly sunny.16 mph59%29.95 "Hg10 mi
4:56 PM84 °FMore clouds than sun.17 mph61%29.97 "Hg10 mi
3:56 PM84 °FPartly sunny.20 mph65%29.98 "Hg10 mi
2:56 PM81 °FPartly sunny.24 mph71%29.99 "Hg10 mi
1:56 PM82 °FMostly cloudy.16 mph65%30.01 "Hg10 mi
12:56 PM84 °FBroken clouds.15 mph63%30.02 "Hg10 mi
11:56 AM79 °FMostly cloudy.18 mph74%30.03 "Hg10 mi
10:56 AM86 °FPartly sunny.9 mph57%30.01 "Hg10 mi
9:56 AM83 °FScattered clouds.13 mph63%30.01 "Hg10 mi
8:56 AM81 °FBroken clouds.15 mph74%30.01 "Hg10 mi
7:56 AM77 °FBroken clouds.3 mph87%29.98 "Hg10 mi
6:56 AM76 °FOvercast.5 mph88%29.99 "Hg10 mi
5:56 AM74 °FPassing clouds.6 mph94%29.98 "Hg10 mi
4:56 AM75 °FPassing clouds.8 mph91%29.97 "Hg10 mi
3:56 AM75 °FClear.8 mph88%29.98 "Hg10 mi
2:56 AM76 °FClear.7 mph88%29.98 "Hg10 mi
1:56 AM77 °FClear.10 mph85%30.00 "Hg10 mi
12:56 AM78 °FClear.9 mph85%30.00 "Hg10 mi
11:56 PM
Tue, Jun 30
79 °FClear.9 mph82%29.99 "Hg10 mi
Weather by CustomWeather, © 2015

See weather overviewHow to use our weather pages